Weather History for Ft Lauderdale, FL

Change the Weather History Date:

Monday, July 8, 2013

  Actual Average Record
Temperature  
Mean Temperature 84 °F 84 °F  
Max Temperature 88 °F 90 °F 98 °F (1932)
Min Temperature 80 °F 78 °F 64 °F (1975)
Degree Days  
Heating Degree Days 0 0  
Month to date heating degree days 0 0  
Since 1 June heating degree days 0 0  
Since 1 July heating degree days 0 0  
Cooling Degree Days 19 19  
Month to date cooling degree days 144 152  
Year to date cooling degree days 2084 2113  
Since 1 June cooling degree days 688 695  
Growing Degree Days 34 (Base 50)    
Moisture  
Dew Point 72 °F    
Average Humidity 67    
Maximum Humidity 74    
Minimum Humidity 59    
Precipitation  
Precipitation 0.00 in 0.20 in 2.87 in (1935)
Month to date precipitation 1.12 1.78  
Year to date precipitation 40.63 29.43  
Snow  
Snow 0.00 in - - ()
Month to date snowfall 0.0  
Since 1 June snowfall 0.0  
Since 1 July snowfall 0.0  
Snow Depth 0.00 in    
Sea Level Pressure  
Sea Level Pressure 30.11 in    
Wind  
Wind Speed 11 mph (East)    
Max Wind Speed 17 mph    
Max Gust Speed 22 mph    
Visibility 10 miles    
Events      
T = Trace of Precipitation, MM = Missing Value Source: NWS Daily Summary

Daily Weather History Graph

Daily Weather History Graph

Search for Another Location

Airport:

Trip Planner

Search our weather history database for the weather conditions in past years. The results will help you decide how hot, cold, wet, or windy it might be!

Date:

Astronomy

Jul. 08, 2013 Rise Set
Actual Time 6:35 AM EDT 8:16 PM EDT
Civil Twilight 6:09 AM EDT 8:42 PM EDT
Nautical Twilight 5:38 AM EDT 9:13 PM EDT
Astronomical Twilight 5:05 AM EDT 9:45 PM EDT
Moon 6:54 AM EDT (7/8) 8:28 PM EDT (7/8)
Length of Visible Light 14h 32m
Length of Day
13h 41m
New Moon, 0% of the Moon is Illuminated
Jul 8
New Moon
Jul 15
First Quarter
Jul 22
Full
Jul 29
Last Quarter
Aug 6
New

Hourly Weather History & Observations

Time (EDT) Temp. Heat Index Dew Point Humidity Pressure Visibility Wind Dir Wind Speed Gust Speed Precip Events Conditions
12:53 AM 82.0 °F 86.7 °F 72.0 °F 71% 30.10 in 10.0 mi ESE 10.4 mph - N/A   Partly Cloudy
1:53 AM 81.0 °F 84.4 °F 70.0 °F 69% 30.09 in 10.0 mi ESE 8.1 mph - N/A   Partly Cloudy
2:53 AM 82.0 °F 86.7 °F 72.0 °F 71% 30.09 in 10.0 mi ESE 9.2 mph - N/A   Scattered Clouds
3:53 AM 81.0 °F 84.9 °F 71.1 °F 72% 30.09 in 10.0 mi ESE 11.5 mph - N/A   Scattered Clouds
4:53 AM 81.0 °F 85.2 °F 72.0 °F 74% 30.08 in 10.0 mi ESE 11.5 mph - N/A   Partly Cloudy
5:53 AM 81.0 °F 84.9 °F 71.1 °F 72% 30.08 in 10.0 mi East 12.7 mph - N/A   Partly Cloudy
6:53 AM 81.0 °F 85.2 °F 72.0 °F 74% 30.08 in 10.0 mi ESE 13.8 mph - N/A   Scattered Clouds
7:53 AM 81.0 °F 85.2 °F 72.0 °F 74% 30.10 in 10.0 mi ESE 12.7 mph - N/A   Partly Cloudy
8:53 AM 84.0 °F 89.0 °F 71.1 °F 65% 30.11 in 10.0 mi East 12.7 mph - N/A   Partly Cloudy
9:53 AM 84.9 °F 90.7 °F 72.0 °F 65% 30.12 in 10.0 mi ESE 13.8 mph - N/A   Partly Cloudy
10:53 AM 84.9 °F 90.1 °F 71.1 °F 63% 30.14 in 10.0 mi East 11.5 mph - N/A   Scattered Clouds
11:53 AM 86.0 °F 91.5 °F 71.1 °F 61% 30.15 in 10.0 mi East 13.8 mph - N/A   Partly Cloudy
12:53 PM 87.1 °F 93.6 °F 72.0 °F 61% 30.14 in 10.0 mi East 17.3 mph 21.9 mph N/A   Partly Cloudy
1:53 PM 87.1 °F 92.8 °F 71.1 °F 59% 30.13 in 10.0 mi East 13.8 mph 19.6 mph N/A   Clear
2:53 PM 87.1 °F 94.5 °F 73.0 °F 63% 30.12 in 10.0 mi East 13.8 mph - N/A   Scattered Clouds
3:53 PM 84.9 °F 90.7 °F 72.0 °F 65% 30.11 in 10.0 mi East 12.7 mph - N/A   Scattered Clouds
4:53 PM 86.0 °F 92.2 °F 72.0 °F 63% 30.08 in 10.0 mi East 9.2 mph 17.3 mph N/A   Scattered Clouds
5:53 PM 84.0 °F 89.6 °F 72.0 °F 67% 30.08 in 10.0 mi East 11.5 mph - N/A   Scattered Clouds
6:53 PM 84.0 °F 88.4 °F 70.0 °F 63% 30.08 in 10.0 mi East 11.5 mph - N/A   Scattered Clouds
7:53 PM 82.9 °F 87.5 °F 71.1 °F 67% 30.09 in 10.0 mi East 10.4 mph - N/A   Partly Cloudy
8:53 PM 81.0 °F 84.9 °F 71.1 °F 72% 30.09 in 10.0 mi ENE 9.2 mph - N/A   Partly Cloudy
9:53 PM 82.0 °F 87.4 °F 73.0 °F 74% 30.12 in 10.0 mi ENE 8.1 mph - N/A   Partly Cloudy
10:53 PM 81.0 °F 85.2 °F 72.0 °F 74% 30.13 in 10.0 mi East 8.1 mph - N/A   Partly Cloudy
11:53 PM 81.0 °F 85.2 °F 72.0 °F 74% 30.14 in 10.0 mi East 9.2 mph - N/A   Partly Cloudy